Weather in Saarlouis

Germany     49°18′56″N   6°45′00″E
temp.,
°C
wind,
m/s
gust,
m/s
humid.,
%
clouds,
%
prec.,
mm/h
press.,
hPa
HPBL,
m
3 march, wed
wed301:00+6ese11751 0.0 103122
04:00+5se11798 0.0 103022
07:00+5se118138 0.0 103022
10:00+9ssw236543 0.0 1030263
13:00+13sw235350 0.0 1029543
16:00+14wsw245525 0.0 1027716
19:00+10sw227612 0.0 102741
22:00+9sw11840 0.0 102622
4 march, thu
thu401:00+7ssw12890 0.0 102526
04:00+6sw229143 0.0 102355
07:00+6wsw379062 0.2 1022242
10:00+7ssw2490100 1.4 1021192
13:00+12wsw357186 1.8 1020793
16:00+11w476570 1.9 10181232
19:00+8wnw368376 2.4 1019367
22:00+6nw488630 0.0 1020386
5 march, fri
fri501:00+5nnw258747 0.0 1020305
04:00+5n3683100 0.0 1021587
07:00+3nne378187 0.0 1022556
10:00+4nne466694 0.0 1024874
13:00+5ne465587 0.0 10251221
16:00+5ne465498 0.0 10251335
19:00+3ene475889 0.0 1028913
22:00+1ne49658 0.0 1030654
6 march, sat
sat601:000ene410644 0.0 1031591
04:000ene411620 0.0 1031622
07:00−1ene410630 0.0 1032539
10:00+2e59440 0.0 1032892
13:00+6ene57340 0.0 10311097
16:00+6ene47350 0.0 10301080
19:00+2ene37500 0.0 1030367
22:00+1ene39530 0.0 1030261
7 march, sun
sun701:000ene37530 0.0 1029217
04:00−1ene37540 0.0 1028227
07:00−1e26550 0.0 1027202
10:00+3e35420 0.0 1026432
13:00+7se223217 0.0 1024761
16:00+8wnw013452 0.0 10221037
19:00+4nw114767 0.0 102122
22:00+2ene115158 0.0 102154